SCP
0 0 0 0 0 0 0 0 0 0 1 1 2 1 1 1 1 1 1 1 2 2 2 2 3 3 3 3 3 3 2 2 2 2 2 2 2 1 1 1 1 1 1 1 1 1 1 1 1
0 0 0 0 0 0 0 0 0 1 1 2 2 2 2 2 2 1 1 2 2 2 2 2 3 3 3 4 3 3 2 2 2 2 2 2 2 1 1 1 1 1 1 1 1 1 1 1 1
0 0 0 0 0 0 0 0 1 1 1 2 2 2 2 2 2 2 2 2 2 2 2 3 3 4 4 4 3 3 2 2 2 2 2 2 2 2 2 2 2 2 1 1 1 1 1 1 1
0 0 0 0 0 0 0 1 1 1 2 2 3 3 3 2 2 2 2 2 2 2 2 3 4 5 4 4 3 3 2 2 2 2 3 3 3 3 3 2 2 2 1 1 1 1 1 1 1
0 0 0 0 0 0 0 1 1 2 2 2 3 3 3 3 3 3 3 3 3 3 3 4 5 6 5 5 4 3 3 3 2 2 3 3 3 3 2 2 2 1 1 1 1 1 1 1 1
0 0 0 0 0 0 1 1 2 3 3 3 3 4 4 4 5 5 4 4 4 4 5 6 7 7 7 6 5 4 4 3 3 3 3 3 3 2 2 1 1 1 1 1 1 1 1 1 1
0 0 0 0 0 1 1 1 2 3 3 3 3 4 5 5 5 5 5 4 5 7 8 8 8 8 8 8 7 6 5 5 4 3 3 3 3 2 2 1 1 1 2 2 1 1 1 1 1
0 0 0 0 0 1 1 1 3 4 3 3 3 4 5 5 6 5 5 5 7 10 11 10 10 9 8 8 8 7 6 6 4 4 3 3 3 2 2 2 2 2 2 2 2 2 2 2 1
0 0 0 0 0 0 1 1 2 3 3 3 3 3 4 6 7 6 5 5 8 11 12 12 11 10 8 7 6 6 6 5 4 4 4 3 3 3 2 2 2 2 2 2 2 2 2 2 2
0 0 0 0 0 1 1 2 2 3 3 4 4 3 5 7 8 6 5 5 7 9 11 11 12 11 8 6 5 5 6 5 4 4 4 4 4 3 3 2 2 2 2 2 2 2 3 3 3
0 0 0 0 0 1 2 3 4 4 4 4 4 4 6 7 7 6 5 5 7 8 8 9 10 10 8 5 5 5 6 5 5 5 4 4 4 3 3 3 2 2 2 2 2 3 4 4 4
0 1 1 1 1 1 2 3 4 4 4 4 4 4 6 7 6 5 4 5 7 7 7 8 9 9 7 5 5 5 6 6 6 5 5 4 4 4 3 3 3 2 2 2 3 3 4 4 3
1 1 1 1 1 2 3 3 3 3 4 4 3 4 5 6 5 4 4 6 8 8 8 8 9 8 6 5 5 6 6 6 6 6 5 5 4 4 4 3 3 2 2 3 3 3 2 2 2
0 0 0 0 1 2 2 2 2 2 3 3 4 4 5 5 4 4 5 7 9 10 9 9 8 7 6 6 6 6 6 6 6 5 5 5 4 4 4 4 3 3 3 3 2 2 1 1 1
0 0 0 0 1 2 2 2 1 1 2 3 5 5 5 5 5 5 6 8 10 10 9 9 8 6 6 7 8 8 7 6 6 5 5 5 5 4 4 4 4 4 3 2 1 1 1 1 1
0 0 0 0 1 1 2 1 1 2 3 5 6 7 7 7 7 7 7 8 9 8 8 9 8 7 7 8 8 9 9 8 7 6 5 5 5 5 5 5 5 3 2 1 1 1 1 1 1
0 0 0 0 1 1 1 2 2 3 4 5 6 7 8 9 10 9 8 8 7 6 7 9 8 7 8 8 9 11 11 10 9 8 8 7 7 7 6 5 4 2 1 1 1 1 1 0 0
0 0 0 0 1 1 2 2 3 3 3 3 3 4 6 10 11 9 8 8 6 6 7 8 8 8 9 10 11 14 14 12 10 10 10 10 9 9 7 5 3 2 1 1 1 1 0 0 0
0 0 0 0 1 2 3 3 2 2 2 2 2 2 4 7 9 8 8 6 5 6 7 8 9 10 10 10 11 13 13 11 10 11 10 10 11 11 9 6 3 2 1 1 1 1 0 0 0
0 0 0 0 1 2 3 3 2 1 1 1 1 2 4 6 7 7 7 5 5 5 7 9 11 12 12 11 10 10 10 9 10 10 9 9 10 12 10 6 3 1 1 1 1 1 0 0 0
0 0 0 0 1 2 3 3 2 2 1 1 1 2 4 6 6 6 6 6 6 6 7 10 12 13 12 11 10 8 8 8 8 8 7 8 10 11 9 5 2 1 1 1 1 1 0 0 0
0 0 0 0 0 1 2 2 2 2 1 1 1 2 3 4 5 6 8 9 10 9 9 9 11 12 11 10 9 7 7 6 6 5 6 7 9 9 7 4 2 1 1 1 1 0 0 0 0
0 0 0 0 0 0 1 1 1 1 1 1 2 3 3 4 7 9 9 10 11 12 10 9 9 9 8 8 7 5 4 4 4 3 4 5 7 7 6 4 2 1 1 1 0 0 0 0 0
0 0 0 0 0 0 0 0 1 1 1 2 4 6 7 8 9 10 9 9 10 10 9 9 9 8 7 6 5 3 3 3 2 2 3 3 4 4 4 3 2 1 1 1 0 0 0 0 0
0 0 0 0 0 0 0 0 1 1 2 3 6 9 11 11 10 8 7 7 8 8 7 7 8 7 5 4 3 2 2 2 2 2 2 2 3 3 3 2 2 1 1 1 0 0 0 0 0
0 0 0 0 0 0 0 1 1 2 2 3 5 8 10 9 7 5 5 6 6 6 5 5 6 6 4 2 2 2 1 1 1 1 2 2 3 3 3 2 2 1 1 1 1 0 0 0 0
0 0 0 0 0 0 0 1 2 2 2 3 4 5 6 5 4 3 3 4 4 4 3 3 4 3 2 2 2 1 1 1 1 1 1 1 2 3 3 2 2 1 1 1 1 0 0 0 0
0 0 0 0 0 0 0 1 1 2 2 2 3 3 3 3 2 3 3 2 2 3 3 2 2 2 2 2 1 1 1 1 1 1 1 1 1 2 2 2 2 1 1 1 1 1 0 0 0
0 0 0 0 0 0 0 0 1 1 1 1 2 2 2 1 1 2 2 1 2 2 2 2 1 1 1 1 1 1 1 1 1 1 1 1 1 1 1 2 2 1 1 1 1 1 0 0 0
0 0 0 0 0 0 0 0 0 0 1 1 1 1 1 1 1 1 1 1 1 3 3 2 1 0 1 1 1 1 1 1 1 1 1 1 1 1 1 1 1 1 0 0 0 0 0 0 0
Wind_Speed
2 1 1 3 5 3 3 5 2 2 1 1 5 8 7 4 4 4 3 12 15 14 11 13 15 15 15 14 14 14 13 13 12 12 12 11 11 11 10 10 9 8 7 7 6 5 5 4 3
1 1 3 4 4 0 5 4 4 3 2 1 5 8 7 5 5 8 7 13 16 14 10 11 16 15 15 14 14 14 13 13 12 12 11 11 11 10 9 9 8 7 6 6 5 4 3 2 2
2 1 3 3 2 4 4 3 2 1 0 1 3 5 5 5 6 6 9 15 14 12 9 12 17 16 15 14 13 13 13 13 12 12 11 10 10 9 9 8 7 6 5 4 4 3 2 1 1
1 3 4 3 4 6 5 5 2 1 2 2 4 5 4 3 5 9 15 16 14 11 9 12 17 16 15 14 13 13 13 13 12 11 11 10 9 9 8 8 7 6 5 4 3 2 1 2 2
3 4 3 2 5 5 5 5 2 1 0 2 5 6 3 3 12 16 16 15 14 10 7 10 16 15 15 15 14 13 13 12 12 11 10 10 9 8 8 7 6 6 5 4 3 3 3 3 3
4 4 3 2 6 5 4 3 2 2 2 2 5 6 3 6 13 14 14 12 13 12 9 9 15 15 15 14 14 13 12 11 11 10 10 10 9 9 8 7 6 5 5 4 4 4 4 4 5
4 3 2 3 4 5 5 3 2 3 2 2 5 6 4 6 10 13 12 11 10 11 9 7 8 11 14 14 13 12 11 11 11 10 10 10 9 9 8 7 6 6 6 5 5 5 5 6 6
5 3 1 2 3 6 5 2 1 3 2 3 5 8 7 8 11 11 11 10 9 8 8 7 6 6 6 8 12 12 12 11 11 11 10 10 9 9 9 8 8 8 7 7 6 6 7 7 8
3 3 3 5 4 6 4 1 1 1 3 2 2 5 9 14 14 12 9 7 7 7 6 6 7 6 5 5 8 9 10 10 9 8 9 8 4 4 5 7 9 9 8 8 7 7 7 7 7
4 4 8 7 5 3 3 1 1 2 3 3 4 5 12 14 14 13 11 10 8 8 7 6 7 6 6 6 5 3 4 4 4 3 4 3 3 3 4 6 9 9 8 8 8 7 6 5 3
5 7 8 7 7 4 2 2 1 4 2 3 6 9 11 11 11 11 10 9 10 9 8 7 7 6 6 4 4 3 2 3 3 4 3 2 2 2 2 2 3 4 6 4 4 4 3 2 2
4 6 6 6 7 3 3 1 1 1 4 6 9 11 11 11 10 10 9 9 8 8 8 7 7 6 5 4 4 3 3 3 3 4 4 3 2 2 2 2 2 2 1 2 2 2 2 3 3
3 6 6 6 4 3 2 2 2 1 2 5 9 8 9 9 8 7 8 7 8 9 8 8 7 7 5 4 4 4 3 3 3 3 3 3 2 2 2 1 1 2 1 2 2 2 2 3 3
5 5 6 6 5 2 3 1 3 2 4 6 7 7 7 7 8 7 7 7 8 8 7 6 6 6 5 4 3 3 3 3 3 2 3 4 3 2 1 1 1 1 1 1 1 2 1 2 2
1 3 6 5 4 3 5 3 1 4 4 5 6 6 7 5 5 7 8 9 9 8 7 7 7 6 6 5 4 3 3 3 3 3 3 3 3 2 2 1 1 1 1 1 1 1 1 2 2
3 2 4 7 2 2 6 2 4 3 5 4 5 5 5 4 5 6 7 6 7 7 6 6 6 6 5 4 3 2 3 3 2 2 2 2 2 2 2 1 1 1 1 0 0 0 1 2 2
3 1 4 7 3 1 4 3 4 3 4 4 4 4 4 3 3 3 5 7 7 6 7 6 5 6 5 4 3 2 2 2 2 2 2 2 2 2 2 1 1 1 0 0 1 0 1 2 3
4 2 3 4 3 2 3 3 2 2 5 4 4 3 3 3 2 2 3 5 6 6 5 5 4 4 4 3 2 1 1 1 1 2 2 3 2 2 2 1 1 1 0 0 0 1 1 2 2
4 2 4 5 2 2 2 2 1 1 4 4 3 3 2 2 1 2 4 4 5 5 5 5 4 3 3 2 2 2 1 1 1 2 3 3 2 2 2 1 1 1 1 1 1 1 1 2 1
2 2 4 4 2 2 2 2 2 3 3 4 4 3 3 2 2 2 4 4 3 4 4 5 4 4 3 2 2 2 1 1 1 1 1 2 2 3 3 3 2 2 1 1 1 1 1 1 0
2 2 3 3 3 3 4 3 4 3 5 5 4 3 4 4 3 2 2 3 3 4 4 4 4 3 3 3 2 2 2 1 1 1 1 2 3 3 3 3 3 2 2 2 2 2 2 1 2
3 3 2 2 1 1 2 1 3 1 4 4 3 3 3 2 2 2 2 2 3 3 3 3 3 3 3 3 3 3 2 2 2 2 2 2 2 2 3 3 3 3 2 3 3 2 2 2 2
4 3 2 2 1 1 2 2 3 1 1 2 2 2 2 1 2 2 2 1 1 1 2 3 3 3 2 2 2 2 1 1 1 1 1 2 2 2 2 3 3 3 3 3 3 2 2 2 3
2 4 4 4 4 1 2 3 2 1 3 1 1 2 3 3 3 3 2 2 2 2 1 2 3 2 1 1 1 2 2 1 1 1 1 2 2 2 2 2 3 3 3 3 3 3 2 2 2
6 6 5 6 4 3 1 3 3 2 2 3 3 2 2 3 3 3 3 3 2 1 2 2 2 1 1 1 1 1 2 2 2 2 2 2 2 2 3 3 3 3 3 3 3 2 3 3 3
2 5 5 2 2 3 3 1 2 2 2 3 3 3 3 4 4 3 3 3 2 2 2 2 2 0 0 0 1 1 1 1 2 2 2 2 2 3 3 3 3 3 3 3 2 2 3 2 3
3 2 3 5 1 1 1 1 2 3 4 4 4 4 3 3 3 2 3 4 2 2 1 1 2 1 1 1 1 1 1 1 2 2 2 2 2 3 3 2 2 2 2 3 2 2 3 2 3
3 2 5 4 2 2 3 1 2 2 0 2 2 2 2 2 3 3 3 2 2 2 1 1 1 2 1 1 1 1 1 2 3 2 2 2 2 2 2 2 2 2 2 2 2 2 2 2 3
5 5 4 2 2 3 2 3 2 3 2 2 1 2 2 2 2 2 2 2 2 2 2 1 1 1 1 1 1 1 2 2 2 2 2 2 2 2 2 2 2 2 2 3 2 3 2 2 3
3 2 3 2 2 1 2 5 3 1 2 3 2 2 2 3 2 2 2 2 2 2 2 1 1 0 1 1 2 2 2 2 2 2 3 2 3 2 2 2 2 2 2 2 3 3 3 3 3
Wind_Direction
231 221 122 75 56 48 256 247 233 308 324 32 91 97 93 88 130 149 141 137 137 142 146 146 144 140 138 137 135 134 131 128 126 125 124 123 122 121 120 119 118 119 120 121 119 118 114 108 103
211 175 67 64 89 35 273 244 227 226 176 99 86 93 85 70 92 116 127 142 140 142 145 148 146 142 140 140 139 138 136 133 132 131 131 130 130 129 128 128 127 126 125 124 124 123 120 114 107
244 148 90 79 143 193 244 251 212 288 17 63 87 76 92 122 123 131 145 142 138 141 146 152 147 144 143 143 142 142 141 139 138 137 136 135 136 137 138 139 139 137 134 133 136 136 139 160 203
82 54 55 78 250 237 237 262 255 304 340 41 98 83 76 117 134 136 139 141 139 142 147 153 149 148 147 148 147 146 146 146 146 145 145 145 145 146 147 148 149 149 149 154 160 169 197 240 255
72 78 57 323 264 256 250 245 225 258 249 95 103 105 80 69 114 128 138 141 139 140 146 152 150 151 152 152 152 151 151 151 152 153 154 154 154 154 156 158 162 165 170 180 192 213 232 251 266
58 73 91 264 277 280 263 245 162 143 126 101 111 115 105 118 126 139 140 140 142 144 146 151 153 153 154 155 156 156 156 156 157 159 162 163 165 167 169 173 178 183 192 201 214 225 237 253 265
119 109 182 223 274 287 270 278 192 163 155 180 147 120 127 139 143 141 138 137 140 144 145 150 155 158 159 157 157 159 161 162 165 168 171 173 177 181 184 188 197 206 212 219 229 238 249 259 267
150 106 283 249 247 268 270 270 206 134 170 166 136 138 159 163 145 134 130 130 135 140 147 151 151 155 159 163 165 166 166 169 173 176 180 185 190 195 200 202 209 218 225 230 237 246 255 262 268
115 82 247 238 224 255 272 274 310 137 123 111 111 145 153 143 136 128 124 121 132 142 153 157 157 160 158 164 172 173 174 177 180 184 187 190 197 206 211 213 218 226 235 239 244 251 259 267 271
126 174 234 227 221 255 298 256 240 64 78 77 77 98 129 138 140 141 144 147 149 156 165 167 165 164 163 174 166 172 181 184 187 189 192 188 184 202 210 223 226 233 239 243 250 258 264 268 274
178 208 239 252 251 247 290 305 350 116 110 157 153 143 142 141 143 149 153 158 161 163 165 170 172 168 168 171 166 172 184 184 190 193 198 191 185 204 214 219 239 243 242 246 261 262 256 258 260
219 250 240 258 268 262 245 197 43 123 186 167 155 148 146 146 153 156 155 157 157 163 170 171 169 167 172 166 168 169 179 182 190 201 200 192 190 202 209 215 225 229 230 226 240 246 255 261 260
239 260 260 253 258 227 150 120 120 69 141 130 129 135 148 152 157 160 150 152 156 163 167 173 169 168 173 170 171 168 179 181 191 195 194 178 174 191 205 223 231 232 222 218 237 251 264 276 278
240 255 265 265 259 225 132 123 100 184 134 123 133 144 155 160 162 151 145 153 160 166 168 168 166 167 162 164 168 170 174 172 177 190 192 178 178 181 194 222 232 238 239 238 235 248 258 266 273
260 316 313 282 261 236 115 36 205 191 149 137 149 151 150 153 154 153 160 163 167 167 167 169 167 162 162 166 173 172 173 166 172 184 189 183 180 178 182 192 216 242 264 273 268 282 292 287 289
359 358 310 289 275 257 114 203 242 200 146 150 154 152 148 153 157 158 159 156 162 159 159 170 165 157 162 166 169 170 166 165 175 181 181 183 182 172 162 163 213 242 247 242 242 283 294 291 291
357 284 274 294 306 327 117 190 233 211 147 145 145 137 136 131 131 148 158 161 160 158 157 163 159 158 162 163 160 160 160 166 173 168 166 183 187 175 162 174 213 235 214 220 270 315 274 290 296
262 268 278 284 306 53 122 181 202 177 139 135 127 126 124 125 158 160 150 151 154 155 150 148 149 153 146 138 135 134 139 159 155 172 188 190 186 178 166 182 199 206 182 264 278 278 291 276 281
226 245 275 279 274 76 128 137 132 123 99 99 107 112 101 113 117 104 107 118 131 131 134 140 132 139 136 131 151 160 179 190 188 207 200 194 191 184 174 185 197 192 196 228 238 241 292 300 316
242 290 290 296 310 92 106 65 58 81 94 104 107 109 117 79 58 93 113 108 127 138 138 135 139 146 146 152 163 169 171 198 199 223 219 208 205 207 201 192 198 209 216 248 245 219 242 271 299
278 252 264 288 341 61 95 18 11 36 56 67 74 98 113 118 117 116 120 122 139 148 154 151 147 141 144 141 120 88 58 24 1 283 261 237 224 224 215 205 200 206 201 229 234 218 198 243 278
278 265 269 286 24 284 127 167 306 23 40 35 39 56 80 107 105 93 96 122 166 170 156 141 138 134 140 142 146 147 163 208 233 229 238 250 238 237 226 207 201 206 206 222 236 216 198 189 253
263 271 264 240 139 42 6 113 288 48 44 342 26 43 71 89 97 76 74 161 180 142 136 136 127 128 137 125 143 141 164 208 223 233 238 264 278 259 241 216 205 212 216 225 235 229 213 200 218
341 9 9 44 71 34 266 129 286 248 215 192 62 58 64 65 64 65 69 94 49 45 78 123 122 117 130 132 137 138 154 175 179 267 273 283 284 277 262 224 208 216 221 229 231 227 225 224 224
35 59 25 8 16 269 268 109 250 259 178 160 147 102 80 80 72 64 62 74 72 88 89 108 122 135 129 92 106 161 177 176 203 225 237 261 277 268 258 230 220 222 221 221 219 221 231 229 227
341 112 137 201 249 287 350 100 273 330 106 112 114 114 93 72 62 52 53 76 85 98 108 106 106 99 41 9 278 238 202 207 226 230 233 240 247 256 253 229 228 227 218 217 219 224 232 228 231
25 11 160 137 5 350 326 19 340 34 64 84 92 86 75 70 63 51 44 47 44 76 97 125 121 120 210 227 227 229 248 247 242 248 247 247 251 256 250 232 232 233 225 219 212 223 241 239 238
84 90 59 73 72 320 319 312 277 294 316 59 64 75 75 61 58 50 41 41 34 46 62 85 150 189 215 234 237 235 249 255 250 249 259 260 262 264 261 249 230 230 235 231 219 239 249 241 248
22 29 57 74 137 156 280 281 261 237 197 141 119 98 71 64 71 62 38 24 25 33 34 29 342 213 223 248 252 255 258 265 269 260 256 257 265 266 259 246 235 237 244 240 233 245 246 247 263
77 85 103 115 276 167 178 268 303 229 167 146 130 101 69 58 62 61 45 28 24 20 13 4 338 313 271 268 274 262 261 264 268 269 268 266 264 260 262 257 242 246 253 249 242 253 259 248 254